This demonstration page uses our WeatherBlox Daily Observations layout. Learn more.

Left ArrowRight Arrow

Hourly Observations for January 15, 2018

Temp ( °F °C ) Dew Point ( °F °C ) Humidity (%) Winds ( mph kmh ) Pressure ( in mb ) Visibility ( mi km ) Precip ( " mm )
12:05 am 00:05 Cloudy 27 -3 18 -8 69 69 N 21 33 30.39 1029 10 16 0.00 0.00
12:38 am 00:38 Partly Cloudy 25 -4 16 -9 69 69 N 20 31 30.42 1030 10 16 0.00 0.00
12:53 am 00:53 Partly Cloudy 24 -4.4 15 -9.4 68 68 N 17 28 30.37 1028 10 16 0.00 0.00
1:53 am 01:53 Clear 19 -7.2 11 -11.7 71 71 NNW 23 37 30.41 1030 10 16 0.00 0.00
2:24 am 02:24 Mostly Cloudy 16 -8.9 6 -14.4 65 65 N 23 37 30.53 1034 10 16 0.00 0.00
2:34 am 02:34 Partly Cloudy 16 -9 7 -14 67 67 N 25 41 30.53 1034 10 16 0.00 0.00
2:53 am 02:53 Clear 14 -10 6 -14.4 71 71 N 22 35 30.45 1031 10 16 0.00 0.00
3:53 am 03:53 Mostly Clear 11 -11.7 4 -15.6 73 73 NNW 17 28 30.48 1032 10 16 0.00 0.00
4:08 am 04:08 Mostly Cloudy 11 -11.7 5 -15 77 77 NNW 14 22 30.56 1035 10 16 0.00 0.00
4:30 am 04:30 Partly Cloudy 10 -12 1 -17 67 67 NW 16 26 30.62 1037 10 16 0.00 0.00
4:53 am 04:53 Mostly Cloudy 9 -12.8 1 -17.2 70 70 NNW 21 33 30.51 1033 10 16 0.00 0.00
5:23 am 05:23 Partly Cloudy 8 -13.3 1 -17.2 73 73 NNW 20 31 30.62 1037 10 16 0.00 0.00
5:53 am 05:53 Partly Cloudy 7 -13.9 0 -17.8 73 73 N 18 30 30.55 1035 10 16 0.00 0.00
6:53 am 06:53 Clear 4 -15.6 -4 -20 69 69 NNW 20 31 30.61 1037 10 16 0.00 0.00
7:53 am 07:53 Clear 2 -16.7 -5 -20.6 72 72 NNW 16 26 30.64 1038 10 16 0.00 0.00
8:53 am 08:53 Hazy 3 -16.1 -4 -20 72 72 NNW 12 19 30.67 1039 6 10 0.00 0.00
9:02 am 09:02 Mostly Cloudy with Light Snow 2 -16.7 -4 -20 76 76 NNW 13 20 30.77 1042 3 5 0.00 0.03
9:23 am 09:23 Partly Cloudy 2 -16.7 -5 -20.6 72 72 NNW 18 30 30.80 1043 9 14 0.00 0.03
9:53 am 09:53 Sunny 3 -16.1 -5 -20.6 69 69 NNW 20 31 30.69 1039 10 16 0.00 0.03
10:53 am 10:53 Mostly Sunny 4 -15.6 -4 -20 69 69 NNW 21 33 30.72 1040 10 16 0.00 0.00
11:53 am 11:53 Mostly Sunny 5 -15 -4 -20 66 66 NNW 26 43 30.71 1040 8 13 0.00 0.00
12:53 pm 12:53 Partly Cloudy 6 -14.4 -4 -20 63 63 NNW 25 41 30.70 1040 10 16 0.00 0.00
1:00 pm 13:00 Mostly Cloudy 7 -14 -4 -20 61 61 NNW 25 41 30.80 1043 10 16 0.00 0.00
1:53 pm 13:53 Mostly Cloudy 5 -15 -4 -20 66 66 NNW 24 39 30.71 1040 10 16 0.00 0.00
2:16 pm 14:16 Partly Cloudy 7 -14 -4 -20 61 61 NNW 23 37 30.80 1043 10 16 0.00 0.00
2:53 pm 14:53 Mostly Sunny 6 -14.4 -5 -20.6 60 60 NNW 25 41 30.71 1040 10 16 0.00 0.00
3:53 pm 15:53 Sunny 6 -14.4 -4 -20 63 63 NNW 24 39 30.73 1041 10 16 0.00 0.00
4:53 pm 16:53 Sunny 6 -14.4 -5 -20.6 60 60 NNW 23 37 30.74 1041 10 16 0.00 0.00
5:53 pm 17:53 Mostly Clear 3 -16.1 -7 -21.7 62 62 NNW 18 30 30.77 1042 10 16 0.00 0.00
6:53 pm 18:53 Mostly Cloudy 3 -16.1 -7 -21.7 62 62 NNW 22 35 30.79 1043 10 16 0.00 0.00
7:53 pm 19:53 Mostly Cloudy 2 -16.7 -7 -21.7 65 65 NNW 20 31 30.82 1044 10 16 0.00 0.00
8:53 pm 20:53 Mostly Cloudy 2 -16.7 -7 -21.7 65 65 NNW 24 39 30.82 1044 10 16 0.00 0.00
9:53 pm 21:53 Mostly Clear 2 -16.7 -7 -21.7 65 65 NNW 17 28 30.82 1044 10 16 0.00 0.00
10:13 pm 22:13 Mostly Cloudy 2 -16.7 -7 -21.7 65 65 NNW 20 31 30.92 1047 10 16 0.00 0.00
10:53 pm 22:53 Mostly Cloudy 1 -17.2 -8 -22.2 65 65 N 21 33 30.84 1044 10 16 0.00 0.03
11:36 pm 23:36 Partly Cloudy 0 -17.8 -9 -22.8 65 65 NNW 18 30 30.95 1048 10 16 0.00 0.00
11:53 pm 23:53 Mostly Clear 0 -17.8 -9 -22.8 65 65 NNW 15 24 30.84 1045 10 16 0.00 0.00

Powered by AerisWeather